Woodward, OK

2:02 AM CDT on September 22, 2017 (GMT -0500)
West Woodward

Weather History for KWWR - February, 2013

Change the Weather History Date:

Monday, February 25, 2013

  Actual Average (KGAG) Record (KGAG)
Temperature  
Mean Temperature 32 °F -  
Max Temperature 33 °F 57 °F 85 °F (1981)
Min Temperature 32 °F 29 °F -2 °F (2003)
Degree Days  
Heating Degree Days 32    
Moisture  
Dew Point 31 °F    
Average Humidity 96    
Maximum Humidity 100    
Minimum Humidity 93    
Precipitation  
Precipitation 0.18 in - - ()
Sea Level Pressure  
Sea Level Pressure 29.79 in    
Wind  
Wind Speed 17 mph (North)    
Max Wind Speed 28 mph    
Max Gust Speed 36 mph    
Visibility 2 miles    
Events Snow , Thunderstorm    
Averages and records for this station are not official NWS values.
T = Trace of Precipitation, MM = Missing Value Source: NWS Daily Summary

Daily Weather History Graph

Daily Weather History Graph

Search for Another Location

Airport or City:

Trip Planner

Search our weather history database for the weather conditions in past years. The results will help you decide how hot, cold, wet, or windy it might be!

Date:

Astronomy

Feb. 25, 2013 Rise Set
Actual Time 7:13 AM CST 6:29 PM CST
Civil Twilight 6:47 AM CST 6:55 PM CST
Nautical Twilight 6:17 AM CST 7:25 PM CST
Astronomical Twilight 5:47 AM CST 7:54 PM CST
Moon 6:42 PM CST (2/25) 6:45 AM CST (2/25)
Length of Visible Light 12h 07m
Length of Day
11h 15m
Full, 100% of the Moon is Illuminated
Feb 25
Full
Feb 25
Full
Mar 4
Last Quarter
Mar 11
New
Mar 19
First Quarter

Hourly Weather History & Observations

Time (CST) Temp. Windchill Dew Point Humidity Pressure Visibility Wind Dir Wind Speed Gust Speed Precip Events Conditions
12:15 AM 32.0 °F 23.0 °F 32.0 °F 100% 29.84 in 3.0 mi North 11.5 mph - N/A   Overcast
12:35 AM 33.8 °F 25.8 °F 32.0 °F 93% 29.84 in 4.0 mi North 10.4 mph - N/A   Overcast
12:55 AM 33.8 °F 23.9 °F 32.0 °F 93% 29.83 in 2.5 mi North 15.0 mph - 0.03 in Snow Light Snow
1:15 AM 33.8 °F 24.3 °F 32.0 °F 93% 29.82 in 3.0 mi North 13.8 mph - 0.03 in Snow Light Snow
1:35 AM 33.8 °F 24.3 °F 32.0 °F 93% 29.83 in 4.0 mi North 13.8 mph - 0.05 in Snow Light Snow
1:55 AM 33.8 °F 25.8 °F 32.0 °F 93% 29.83 in 3.0 mi North 10.4 mph - 0.06 in Snow Light Snow
2:15 AM 32.0 °F 23.6 °F 32.0 °F 100% 29.83 in 1.5 mi North 10.4 mph - 0.01 in Snow Light Snow
2:35 AM 32.0 °F 23.0 °F 32.0 °F 100% 29.83 in 1.0 mi North 11.5 mph - 0.01 in Snow Light Snow
2:55 AM 32.0 °F 21.2 °F 32.0 °F 100% 29.80 in 1.0 mi North 16.1 mph 20.7 mph 0.03 in Snow Snow
3:15 AM 32.0 °F 21.6 °F 32.0 °F 100% 29.78 in 4.0 mi North 15.0 mph 18.4 mph 0.01 in Snow Light Snow
3:35 AM 32.0 °F 21.6 °F 32.0 °F 100% 29.79 in 3.0 mi North 15.0 mph - 0.01 in Snow , Thunderstorm Light Thunderstorms and Snow
3:55 AM 32.0 °F 21.2 °F 32.0 °F 100% 29.78 in 5.0 mi North 16.1 mph - 0.01 in Snow Light Snow
4:15 AM 32.0 °F 20.8 °F 32.0 °F 100% 29.79 in 4.0 mi North 17.3 mph 21.9 mph N/A Snow Light Snow
4:35 AM 32.0 °F 20.5 °F 32.0 °F 100% 29.77 in 4.0 mi North 18.4 mph 21.9 mph N/A Snow Light Snow
4:55 AM 32.0 °F 20.8 °F 32.0 °F 100% 29.77 in 1.5 mi North 17.3 mph - N/A Snow Light Snow
5:15 AM 32.0 °F 22.1 °F 32.0 °F 100% 29.77 in 1.2 mi North 13.8 mph 19.6 mph N/A Snow Light Snow
5:35 AM 32.0 °F 21.2 °F 32.0 °F 100% 29.76 in 0.5 mi North 16.1 mph - 0.01 in Snow Heavy Snow
5:55 AM 32.0 °F 21.2 °F 32.0 °F 100% 29.79 in 0.8 mi North 16.1 mph - 0.02 in Snow Snow
6:15 AM 32.0 °F 20.8 °F 32.0 °F 100% 29.78 in 1.0 mi North 17.3 mph - N/A Snow Snow
6:35 AM 32.0 °F 20.8 °F 32.0 °F 100% 29.77 in 1.0 mi North 17.3 mph 23.0 mph 0.01 in Snow Snow
6:55 AM 32.0 °F 20.5 °F 32.0 °F 100% 29.77 in 0.8 mi North 18.4 mph 21.9 mph 0.01 in Snow Snow
7:15 AM 32.0 °F 21.2 °F 32.0 °F 100% 29.77 in 0.8 mi North 16.1 mph 23.0 mph 0.01 in Snow Snow
7:35 AM 32.0 °F 21.6 °F 30.2 °F 93% 29.77 in 0.2 mi North 15.0 mph 23.0 mph 0.01 in Snow Snow
7:55 AM 32.0 °F 20.1 °F 30.2 °F 93% 29.75 in 0.5 mi North 19.6 mph 25.3 mph 0.01 in Snow Snow
8:15 AM 32.0 °F 19.5 °F 30.2 °F 93% 29.75 in 0.5 mi North 21.9 mph 25.3 mph N/A Snow Snow
8:35 AM 32.0 °F 20.8 °F 30.2 °F 93% 29.77 in 0.2 mi North 17.3 mph 25.3 mph N/A Snow Heavy Snow
8:55 AM 32.0 °F 20.1 °F 30.2 °F 93% 29.76 in 0.2 mi North 19.6 mph 23.0 mph 0.01 in Snow Heavy Snow
9:15 AM 32.0 °F 20.1 °F 30.2 °F 93% 29.76 in - North 19.6 mph - N/A   Overcast
9:35 AM 32.0 °F 20.1 °F 30.2 °F 93% 29.77 in - North 19.6 mph 26.5 mph N/A Snow Light Snow
9:55 AM 32.0 °F 21.2 °F 30.2 °F 93% 29.76 in - North 16.1 mph 24.2 mph N/A   Overcast
10:15 AM 32.0 °F 20.1 °F 30.2 °F 93% 29.76 in - North 19.6 mph 26.5 mph N/A   Overcast
10:35 AM 32.0 °F 20.5 °F 30.2 °F 93% 29.78 in 2.0 mi North 18.4 mph 24.2 mph N/A Snow Light Snow
10:55 AM 32.0 °F 19.5 °F 30.2 °F 93% 29.78 in 2.5 mi North 21.9 mph 26.5 mph N/A   Overcast
11:15 AM 32.0 °F 18.9 °F 30.2 °F 93% 29.77 in 1.8 mi North 24.2 mph 29.9 mph N/A Snow Light Snow
11:35 AM 32.0 °F 19.8 °F 30.2 °F 93% 29.76 in - North 20.7 mph 32.2 mph N/A   Overcast
11:55 AM 32.0 °F 19.2 °F 30.2 °F 93% 29.76 in - North 23.0 mph 27.6 mph N/A   Overcast
12:15 PM 32.0 °F 19.5 °F 30.2 °F 93% 29.76 in - North 21.9 mph 29.9 mph N/A Snow Light Snow
12:35 PM 32.0 °F 19.8 °F 30.2 °F 93% 29.76 in - North 20.7 mph 28.8 mph N/A   Overcast
12:55 PM 32.0 °F 19.5 °F 30.2 °F 93% 29.76 in - North 21.9 mph 26.5 mph N/A   Overcast
1:15 PM 32.0 °F 19.8 °F 32.0 °F 100% 29.76 in - North 20.7 mph 27.6 mph N/A Snow Light Snow
1:35 PM 32.0 °F 19.2 °F 32.0 °F 100% 29.74 in 0.5 mi North 23.0 mph 28.8 mph N/A Snow Snow
1:55 PM 32.0 °F 19.5 °F 32.0 °F 100% 29.73 in - North 21.9 mph 31.1 mph N/A   Overcast
2:15 PM 32.0 °F 19.5 °F 32.0 °F 100% 29.73 in - North 21.9 mph 28.8 mph N/A   Overcast
2:35 PM 32.0 °F 18.1 °F 32.0 °F 100% 29.72 in - North 27.6 mph 33.4 mph N/A   Overcast
2:55 PM 32.0 °F 18.6 °F 32.0 °F 100% 29.73 in - North 25.3 mph 31.1 mph N/A   Overcast
3:15 PM 32.0 °F 18.1 °F 32.0 °F 100% 29.74 in - North 27.6 mph 33.4 mph N/A   Overcast
3:35 PM 32.0 °F 18.1 °F 30.2 °F 93% 29.74 in - NNW 27.6 mph 33.4 mph N/A   Overcast
3:55 PM 32.0 °F 18.6 °F 30.2 °F 93% 29.75 in - North 25.3 mph 33.4 mph N/A   Overcast
4:15 PM 32.0 °F 18.4 °F 30.2 °F 93% 29.75 in - North 26.5 mph 35.7 mph N/A   Overcast
4:35 PM 32.0 °F 19.2 °F 30.2 °F 93% 29.76 in - North 23.0 mph 34.5 mph N/A   Overcast
4:55 PM 32.0 °F 18.9 °F 30.2 °F 93% 29.76 in - NNW 24.2 mph 31.1 mph N/A   Overcast
5:15 PM 32.0 °F 18.9 °F 30.2 °F 93% 29.77 in - NNW 24.2 mph 32.2 mph N/A   Overcast
5:35 PM 32.0 °F 18.6 °F 30.2 °F 93% 29.78 in - North 25.3 mph 29.9 mph N/A   Overcast
5:55 PM 32.0 °F 19.8 °F 30.2 °F 93% 29.79 in - NNW 20.7 mph - N/A   Overcast
6:15 PM 32.0 °F 19.5 °F 30.2 °F 93% 29.80 in - NNW 21.9 mph 27.6 mph N/A   Overcast
6:35 PM 32.0 °F 19.2 °F 30.2 °F 93% 29.81 in - NNW 23.0 mph 26.5 mph N/A   Overcast
6:55 PM 32.0 °F 19.8 °F 30.2 °F 93% 29.81 in - NNW 20.7 mph 28.8 mph N/A   Overcast
7:15 PM 32.0 °F 20.1 °F 30.2 °F 93% 29.81 in - NNW 19.6 mph - N/A   Overcast
7:35 PM 32.0 °F 19.2 °F 30.2 °F 93% 29.82 in - NNW 23.0 mph 31.1 mph N/A   Overcast
7:55 PM 32.0 °F 18.9 °F 30.2 °F 93% 29.82 in - NNW 24.2 mph 29.9 mph N/A   Overcast
8:15 PM 32.0 °F 19.2 °F 30.2 °F 93% 29.83 in - NNW 23.0 mph 29.9 mph N/A   Overcast
8:35 PM 32.0 °F 19.8 °F 30.2 °F 93% 29.83 in - NNW 20.7 mph 28.8 mph N/A   Overcast
8:55 PM 32.0 °F 19.8 °F 30.2 °F 93% 29.83 in - NNW 20.7 mph 27.6 mph N/A   Overcast
9:15 PM 32.0 °F 19.5 °F 32.0 °F 100% 29.83 in - NNW 21.9 mph 26.5 mph N/A   Overcast
9:35 PM 32.0 °F 20.1 °F 32.0 °F 100% 29.84 in - NNW 19.6 mph 27.6 mph N/A   Overcast
9:55 PM 32.0 °F 20.5 °F 32.0 °F 100% 29.84 in - NNW 18.4 mph 23.0 mph N/A   Overcast
10:15 PM 32.0 °F 20.5 °F 32.0 °F 100% 29.84 in - NNW 18.4 mph - N/A   Overcast
10:35 PM 32.0 °F 20.1 °F 30.2 °F 93% 29.84 in - NNW 19.6 mph - N/A   Overcast
10:55 PM 32.0 °F 20.5 °F 30.2 °F 93% 29.84 in - NNW 18.4 mph 21.9 mph N/A   Overcast
11:15 PM 32.0 °F 20.8 °F 30.2 °F 93% 29.83 in - NNW 17.3 mph 23.0 mph N/A   Overcast
11:35 PM 32.0 °F 20.8 °F 30.2 °F 93% 29.84 in - NNW 17.3 mph 23.0 mph N/A   Overcast
11:55 PM 32.0 °F 20.5 °F 30.2 °F 93% 29.84 in - NNW 18.4 mph 26.5 mph N/A   Overcast